Total_Precipitation_Accumulation
0.28 0.28 0.29 0.37 0.45 0.65 0.84 0.74 0.51 0.42 0.41 0.40 0.38 0.42 0.49 0.56 0.67 0.76 0.81 0.83 0.82 0.86 0.79 0.77 0.84 0.87 1.01 1.01 0.96 0.84 0.71 0.61 0.59 0.43 0.20 0.09 0.05 0.03 0.02 0.01 0.00 0.00 0.00
0.23 0.21 0.22 0.29 0.40 0.45 0.47 0.51 0.41 0.27 0.21 0.24 0.26 0.28 0.34 0.44 0.48 0.52 0.59 0.63 0.65 0.68 0.67 0.61 0.65 0.72 0.78 0.88 0.94 0.92 0.84 0.71 0.65 0.56 0.30 0.14 0.09 0.06 0.04 0.02 0.01 0.00 0.00
0.25 0.27 0.25 0.24 0.26 0.24 0.20 0.17 0.18 0.17 0.13 0.15 0.20 0.26 0.33 0.39 0.49 0.50 0.51 0.53 0.55 0.52 0.54 0.54 0.54 0.59 0.70 0.76 0.73 0.78 0.82 0.82 0.74 0.66 0.44 0.24 0.17 0.11 0.06 0.02 0.01 0.00 0.00
0.42 0.46 0.42 0.39 0.31 0.26 0.22 0.18 0.15 0.12 0.12 0.16 0.21 0.29 0.31 0.34 0.40 0.41 0.45 0.48 0.46 0.42 0.42 0.41 0.39 0.40 0.47 0.65 0.65 0.62 0.69 0.73 0.81 0.78 0.60 0.34 0.24 0.17 0.10 0.05 0.02 0.01 0.01
0.45 0.54 0.53 0.51 0.46 0.40 0.31 0.23 0.20 0.17 0.16 0.20 0.23 0.32 0.35 0.35 0.32 0.37 0.40 0.46 0.44 0.39 0.37 0.37 0.36 0.41 0.55 0.59 0.56 0.61 0.66 0.65 0.71 0.74 0.69 0.51 0.32 0.21 0.13 0.09 0.05 0.04 0.02
0.44 0.53 0.66 0.67 0.55 0.46 0.37 0.30 0.27 0.26 0.23 0.23 0.25 0.33 0.37 0.32 0.57 0.62 0.46 0.42 0.41 0.35 0.33 0.32 0.29 0.30 0.46 0.65 0.68 0.65 0.67 0.73 0.73 0.70 0.65 0.56 0.44 0.33 0.25 0.18 0.10 0.04 0.02
0.41 0.51 0.69 0.68 0.55 0.47 0.47 0.45 0.39 0.37 0.35 0.30 0.27 0.26 0.28 0.40 0.39 0.33 0.29 0.26 0.33 0.30 0.26 0.22 0.18 0.18 0.24 0.32 0.42 0.45 0.59 0.78 0.87 0.80 0.64 0.56 0.58 0.50 0.38 0.25 0.15 0.08 0.05
0.35 0.42 0.53 0.54 0.50 0.51 0.51 0.48 0.42 0.37 0.36 0.33 0.31 0.29 0.31 0.35 0.27 0.22 0.22 0.18 0.24 0.23 0.20 0.18 0.18 0.17 0.19 0.26 0.37 0.41 0.45 0.57 0.75 0.71 0.58 0.59 0.62 0.55 0.45 0.38 0.31 0.22 0.14
0.25 0.31 0.39 0.41 0.44 0.45 0.44 0.45 0.42 0.37 0.37 0.35 0.34 0.38 0.40 0.36 0.31 0.22 0.18 0.20 0.23 0.19 0.15 0.16 0.17 0.19 0.25 0.31 0.31 0.34 0.43 0.49 0.65 0.70 0.74 0.71 0.58 0.44 0.40 0.39 0.36 0.29 0.21
0.17 0.23 0.29 0.32 0.36 0.39 0.43 0.45 0.44 0.41 0.37 0.35 0.34 0.35 0.38 0.36 0.38 0.21 0.19 0.25 0.26 0.23 0.23 0.23 0.27 0.28 0.34 0.36 0.32 0.37 0.45 0.42 0.43 0.48 0.48 0.45 0.36 0.28 0.32 0.28 0.29 0.29 0.23
0.09 0.14 0.20 0.27 0.35 0.43 0.48 0.48 0.49 0.46 0.41 0.38 0.43 0.40 0.37 0.41 0.46 0.34 0.27 0.27 0.30 0.30 0.30 0.31 0.31 0.32 0.35 0.40 0.41 0.48 0.63 0.56 0.41 0.41 0.44 0.39 0.28 0.22 0.23 0.25 0.25 0.26 0.26
0.05 0.10 0.16 0.25 0.32 0.40 0.48 0.50 0.50 0.49 0.48 0.48 0.47 0.49 0.47 0.43 0.45 0.44 0.35 0.30 0.28 0.28 0.35 0.37 0.36 0.34 0.27 0.29 0.30 0.39 0.64 0.61 0.41 0.38 0.41 0.41 0.37 0.32 0.30 0.29 0.28 0.27 0.26
0.02 0.05 0.10 0.14 0.19 0.23 0.29 0.37 0.44 0.48 0.48 0.48 0.50 0.57 0.59 0.53 0.52 0.57 0.36 0.26 0.22 0.25 0.29 0.35 0.35 0.30 0.24 0.20 0.22 0.29 0.44 0.58 0.51 0.39 0.35 0.36 0.41 0.41 0.38 0.32 0.26 0.23 0.22
0.01 0.02 0.04 0.05 0.06 0.09 0.18 0.26 0.33 0.40 0.44 0.50 0.55 0.62 0.70 0.64 0.56 0.47 0.35 0.27 0.24 0.21 0.19 0.18 0.19 0.21 0.21 0.20 0.18 0.21 0.34 0.52 0.56 0.47 0.39 0.40 0.44 0.41 0.34 0.29 0.27 0.25 0.22
0.01 0.01 0.02 0.03 0.04 0.07 0.13 0.22 0.26 0.34 0.35 0.38 0.47 0.58 0.61 0.60 0.59 0.61 0.55 0.47 0.40 0.35 0.28 0.20 0.17 0.17 0.19 0.22 0.22 0.22 0.29 0.41 0.45 0.42 0.38 0.34 0.36 0.39 0.36 0.30 0.26 0.23 0.21
0.06 0.03 0.02 0.02 0.05 0.07 0.09 0.11 0.12 0.15 0.15 0.18 0.23 0.27 0.31 0.34 0.35 0.32 0.35 0.38 0.34 0.28 0.29 0.33 0.34 0.33 0.32 0.29 0.26 0.22 0.21 0.26 0.34 0.35 0.35 0.32 0.31 0.35 0.37 0.33 0.29 0.25 0.21
0.14 0.11 0.06 0.05 0.04 0.05 0.05 0.06 0.06 0.05 0.04 0.06 0.07 0.12 0.19 0.20 0.19 0.18 0.20 0.24 0.30 0.28 0.33 0.39 0.38 0.33 0.29 0.26 0.24 0.21 0.20 0.20 0.24 0.27 0.30 0.32 0.32 0.34 0.39 0.40 0.37 0.33 0.29
0.03 0.03 0.04 0.07 0.05 0.04 0.06 0.12 0.16 0.15 0.10 0.05 0.03 0.05 0.09 0.12 0.14 0.14 0.16 0.17 0.17 0.19 0.26 0.33 0.31 0.27 0.22 0.18 0.16 0.15 0.15 0.16 0.18 0.22 0.26 0.30 0.34 0.37 0.39 0.44 0.46 0.44 0.41
0.01 0.02 0.08 0.10 0.06 0.05 0.10 0.17 0.19 0.16 0.14 0.07 0.02 0.01 0.02 0.04 0.06 0.07 0.09 0.11 0.11 0.10 0.13 0.20 0.22 0.21 0.17 0.12 0.09 0.08 0.07 0.07 0.09 0.13 0.18 0.23 0.28 0.33 0.38 0.40 0.43 0.48 0.48
0.02 0.02 0.08 0.14 0.08 0.08 0.10 0.10 0.10 0.10 0.08 0.04 0.03 0.02 0.01 0.02 0.03 0.03 0.03 0.05 0.06 0.06 0.07 0.11 0.14 0.16 0.14 0.12 0.09 0.07 0.06 0.06 0.06 0.07 0.10 0.15 0.19 0.22 0.27 0.33 0.39 0.41 0.40
0.06 0.03 0.02 0.14 0.17 0.14 0.12 0.10 0.11 0.12 0.08 0.04 0.03 0.01 0.02 0.04 0.05 0.05 0.03 0.03 0.04 0.06 0.07 0.07 0.09 0.13 0.12 0.10 0.09 0.09 0.07 0.06 0.06 0.06 0.07 0.08 0.11 0.14 0.17 0.19 0.23 0.28 0.32
0.02 0.03 0.04 0.13 0.18 0.14 0.11 0.11 0.11 0.10 0.07 0.04 0.03 0.01 0.01 0.03 0.04 0.05 0.04 0.05 0.05 0.05 0.05 0.05 0.08 0.11 0.12 0.10 0.09 0.10 0.09 0.08 0.06 0.07 0.08 0.09 0.09 0.09 0.09 0.11 0.12 0.14 0.17
0.01 0.02 0.03 0.07 0.08 0.04 0.05 0.08 0.09 0.08 0.06 0.03 0.02 0.02 0.02 0.03 0.03 0.04 0.04 0.07 0.10 0.10 0.08 0.06 0.08 0.12 0.14 0.14 0.12 0.12 0.12 0.12 0.10 0.08 0.08 0.10 0.11 0.11 0.10 0.10 0.11 0.12 0.14
0.01 0.01 0.02 0.04 0.04 0.05 0.07 0.08 0.07 0.06 0.06 0.04 0.02 0.02 0.03 0.04 0.04 0.03 0.04 0.07 0.10 0.11 0.08 0.07 0.07 0.09 0.12 0.14 0.16 0.16 0.15 0.14 0.11 0.08 0.08 0.08 0.09 0.10 0.10 0.11 0.12 0.14 0.17
0.02 0.01 0.02 0.03 0.04 0.05 0.05 0.06 0.07 0.06 0.07 0.06 0.05 0.03 0.04 0.05 0.06 0.04 0.03 0.04 0.06 0.06 0.05 0.05 0.07 0.11 0.13 0.14 0.16 0.18 0.23 0.22 0.16 0.11 0.09 0.09 0.09 0.11 0.12 0.15 0.17 0.20 0.23
0.02 0.01 0.02 0.04 0.05 0.05 0.06 0.06 0.06 0.06 0.06 0.06 0.06 0.05 0.06 0.06 0.05 0.04 0.03 0.04 0.04 0.04 0.07 0.07 0.08 0.11 0.13 0.14 0.12 0.12 0.14 0.14 0.13 0.13 0.10 0.08 0.09 0.11 0.14 0.17 0.21 0.25 0.30